Tracking 21094 objects as of 14-Aug-2020
HD Live streaming from Space Station
objects crossing your sky now
Track the most recent launched group of Starlink satellites

ATLAS 2 CENTAUR R/B(2)

Track ATLAS 2 CENTAUR R/B(2) now!


NORAD ID: 23648
Int'l Code: 1995-038C
Perigee: 35,452.4 km
Apogee: 35,581.9 km
Inclination: 14.7 °
Period: 1,422.0 minutes
Semi major axis: 41888 km
RCS: Unknown
Launch date: July 31, 1995
Source: United States (US)
Launch site: AIR FORCE EASTERN TEST RANGE (AFETR)

Note: This is a ROCKET BODY
aabbcc
Your satellite tracking list
Your tracking list is empty




NASA's NSSDC Master Catalog

Two Line Element Set (TLE):
1 23648U 95038C   20225.27766059 -.00000238 +00000-0 +00000-0 0  9995
2 23648 014.7183 002.8625 0015460 249.3871 110.4913 01.01266557004468
Source of the keplerian elements: McCants